Regional Weather Roundup
Issued by NWS

Home | Current Version | Previous Version | Text Only | Print | Product List | Glossary Off
Versions: 1 2 3 4 5 6 7 8 9 10 11 12 13 14 15 16 17 18 19 20 21 22 23 24 25 26 27 28 29 30 31 32 33 34 35 36 37 38 39 40 41 42 43 44 45 46 47 48 49 50

000
ASUS43 KFSD 021110
RWRSD

WEATHER ROUNDUP FOR SOUTH DAKOTA
NATIONAL WEATHER SERVICE SIOUX FALLS SD
600 AM CDT TUE SEP 02 2014

NOTE: "FAIR" INDICATES FEW OR NO CLOUDS BELOW 12,000 FEET WITH NO
SIGNIFICANT WEATHER AND/OR OBSTRUCTIONS TO VISIBILITY.


SDZ001>005-009-010-012>017-021200-
NORTHWEST AND NORTH CENTRAL SOUTH DAKOTA

CITY           SKY/WX    TMP DP  RH WIND       PRES   REMARKS
BUFFALO          N/A     52  44  74 W10       29.84F
FAITH            N/A     50  45  83 S12       29.91F
MOBRIDGE       CLEAR     50  49  96 SE6       29.87S
$$

SDZ012>016-024>037-041>051-057-063-072>074-021200-
SOUTHWEST AND SOUTH CENTRAL SOUTH DAKOTA

CITY           SKY/WX    TMP DP  RH WIND       PRES   REMARKS
RAPID CTY ARPT CLEAR     49  40  71 W7        29.97F
PIERRE         CLEAR     53  51  93 SW12      29.92R
CUSTER         CLEAR     45  39  79 W8        30.08S
ELLSWORTH AFB  CLEAR     49  41  74 W8        29.96F
PHILIP         CLEAR     50  47  89 CALM      29.95F
PINE RIDGE     CLEAR     40  39  97 MISG      30.02S
WINNER         FAIR      54  49  83 SW8       29.96S
$$

SDZ004>011-016>023-039-040-021200-
NORTHEAST SOUTH DAKOTA

CITY           SKY/WX    TMP DP  RH WIND       PRES   REMARKS
ABERDEEN       CLEAR     47  47 100 SW3       29.88S
WATERTOWN      CLEAR     52  51  97 SW5       29.89S
SISSETON         N/A     54  52  93 W3        29.85R
$$

SDZ017-020-022-023-036>040-048>070-021200-
SOUTHEAST SOUTH DAKOTA

CITY           SKY/WX    TMP DP  RH WIND       PRES   REMARKS
SIOUX FALLS    CLEAR     56  54  93 W3        29.92F
HURON          CLEAR     52  51  97 S5        29.91R
CHAMBERLAIN    CLEAR     51  50  97 W5        29.94R
MITCHELL       CLEAR     56  54  93 W6        29.92S
YANKTON        CLEAR     55  54  94 W8        29.93S
$$

ABBREVIATIONS USED IN REMARKS
   TC - TEMPERATURE IN CELSIUS
  WCI - WIND CHILL INDEX
   HX - HEAT INDEX
  VSB - VISIBILITY



USA.gov is the U.S. government's official web portal to all federal, state and local government web resources and services.